Flag for Canada Weather past 2 weeks in Conception Bay South, Newfoundland and Labrador, Canada

Now
19 °F

Clear.


Feels Like: 3 °F
Forecast: 11 / 16 °F
Wind: 21 mph from West

Location: St. John's

Current Time: Feb 27, 2015 at 9:29:27 PM

Latest Report: Feb 27, 2015 at 8:30 PM


Visibility: 15 mi

Pressure: 29.99 "Hg

Humidity: 79%

Dew point: 14 °F

Location of Conception Bay SouthLocation

Historic Weather in Conception Bay South — Graph

°F

Conception Bay South temperature yesterday

Maximum temperature yesterday: 34 °F (at 5:30 AM)
Minimum temperature yesterday: 23 °F (at 6:30 PM)
Average temperature yesterday: 27 °F

Past Weeks' High & Low Weather Summary

 TemperatureHumidityPressure
High45 °F (Feb 20, 8:30 AM)100% (Feb 12, 9:30 PM)30.55 "Hg (Feb 12, 9:30 PM)
Low9 °F (Feb 25, 12:30 AM)55% (Feb 16, 2:30 PM)28.57 "Hg (Feb 13, 9:30 PM)
Average26 °F85%29.71 "Hg
* Reported Feb 12 8:30 PM — Feb 27 8:30 PM, Conception Bay South, Weather by CustomWeather, © 2015

Note: Actual official high and low records may vary slightly from our data, if they occured in-between our weather recording intervals... More about our weather records

Advertising

Conception Bay South weather history for previous 24 hours

 ConditionsComfort  
Time TempWeatherWind HumidityBarometerVisibility
8:30 PM
Fri, Feb 27
19 °FClear.21 mph79%29.99 "Hg15 mi
7:30 PM21 °FPassing clouds.18 mph80%29.97 "Hg15 mi
6:30 PM21 °FMostly cloudy.17 mph74%29.95 "Hg15 mi
5:30 PM23 °FPartly cloudy.16 mph68%29.92 "Hg15 mi
4:30 PM25 °FPartly sunny.15 mph69%29.89 "Hg15 mi
4:25 PM25 °FPartly sunny.13 mph74%29.89 "Hg15 mi
3:30 PM25 °FLight snow. Partly sunny.13 mph74%29.89 "Hg15 mi
2:30 PM25 °FLight snow. Partly sunny.18 mph69%29.85 "Hg15 mi
1:30 PM25 °FLight snow. Broken clouds.16 mph80%29.84 "Hg15 mi
12:30 PM23 °FLight snow. Broken clouds.13 mph86%29.84 "Hg10 mi
11:30 AM23 °FLight snow. Overcast.12 mph86%29.84 "Hg12 mi
10:30 AM23 °FLight snow. Overcast.8 mph86%29.81 "Hg15 mi
9:30 AM23 °FPartly sunny.8 mph86%29.81 "Hg12 mi
8:30 AM21 °FLight snow. Low clouds.8 mph93%29.81 "Hg3 mi
7:30 AM21 °FLight snow. Overcast.6 mph93%29.81 "Hg2 mi
6:30 AM21 °FLight snow. Overcast.6 mph93%29.80 "Hg6 mi
5:30 AM21 °FLight snow. Overcast.5 mph93%29.78 "Hg10 mi
4:30 AM21 °FLight snow. Overcast.2 mph93%29.79 "Hg3 mi
3:30 AM21 °FLight snow. Overcast.2 mph93%29.79 "Hg15 mi
2:30 AM21 °FLight snow. Overcast.3 mph93%29.81 "Hg12 mi
1:30 AM21 °FLight snow. Overcast.6 mph93%29.87 "Hg10 mi
12:30 AM23 °FLight snow. Overcast.6 mph86%29.89 "Hg15 mi
11:30 PM
Thu, Feb 26
23 °FLight snow. Overcast.6 mph80%29.92 "Hg15 mi
10:30 PM23 °FOvercast.7 mph74%29.93 "Hg15 mi
9:30 PM23 °FPassing clouds.14 mph74%29.94 "Hg15 mi
Weather by CustomWeather, © 2015

See weather overviewHow to use our weather pages